period_start,C,m1,H,J0,J1,J2,J3,J4,J5,JA,JB,JC,JD,JJ,JK,JN,#
2016-09-20 00:03:19,0.00,1.39,0.00,19.31,25.83,29.10,14.93,47.85,1024.43,2041.01,2963.99,2771.04,3134.01,599.74,607.88,38.43,0000 0000 0000 0000 000000
2016-09-20 00:08:21,0.00,1.39,0.00,19.27,25.82,29.05,14.91,47.79,1024.43,2041.03,2963.99,2771.11,3134.05,600.01,608.23,38.49,0000 0000 0000 0000 000000
2016-09-20 00:13:22,0.00,1.39,0.00,19.22,25.80,29.06,14.91,47.83,1024.43,2041.08,2963.99,2771.27,3134.06,599.89,608.26,38.54,0000 0000 0000 0000 000000
2016-09-20 00:18:23,-0.01,1.39,0.00,19.17,25.80,29.08,14.91,47.69,1024.43,2041.11,2963.99,2771.30,3134.11,599.63,608.11,38.59,0000 0000 0000 0000 000000
2016-09-20 00:23:25,0.01,1.39,0.00,19.23,25.78,29.05,14.97,47.83,1024.43,2041.19,2963.99,2771.36,3134.12,600.17,608.65,38.64,0000 0000 0000 0000 000000
2016-09-20 00:28:25,0.03,1.39,0.00,19.19,25.77,28.99,14.92,47.66,1024.43,2041.59,2963.99,2771.58,3134.26,600.33,608.75,38.69,0000 0000 0000 0000 000000
2016-09-20 00:33:27,0.01,1.39,0.00,19.22,25.76,29.05,14.91,47.81,1024.41,2041.87,2963.99,2771.77,3134.47,599.83,608.30,38.74,0000 0000 0000 0000 000000
2016-09-20 00:38:28,0.01,1.39,0.00,19.23,25.75,29.02,15.03,47.86,1024.40,2041.95,2963.99,2771.72,3134.42,600.22,608.62,38.79,0000 0000 0000 0000 000000
2016-09-20 00:43:29,-0.00,1.39,0.00,19.26,25.74,28.98,14.98,47.83,1024.34,2041.97,2963.99,2771.79,3134.57,599.91,608.20,38.84,0000 0000 0000 0000 000000
2016-09-20 00:48:30,-0.00,1.39,0.00,19.23,25.72,28.99,14.97,47.82,1024.24,2041.98,2963.97,2771.90,3134.83,599.99,608.26,38.89,0000 0000 0000 0000 000000
2016-09-20 00:53:32,0.00,1.39,0.00,19.26,25.72,28.94,14.93,47.71,1024.02,2041.99,2963.87,2771.81,3134.61,599.99,608.07,38.94,0000 0000 0000 0000 000000
2016-09-20 00:58:33,0.01,1.39,0.00,19.19,25.70,28.91,14.85,47.82,1023.96,2041.99,2963.56,2771.70,3134.43,599.69,607.67,38.99,0000 0000 0000 0000 000000
2016-09-20 01:03:34,0.00,1.39,0.00,19.21,25.70,28.90,14.95,47.78,1023.96,2041.99,2963.31,2771.66,3134.42,599.86,608.05,39.04,0000 0000 0000 0000 000000
2016-09-20 01:08:35,0.02,1.39,0.00,19.32,25.68,28.93,14.93,47.75,1023.96,2042.00,2963.07,2771.48,3134.33,599.85,607.75,39.09,0000 0000 0000 0000 000000
2016-09-20 01:13:37,0.01,1.39,0.00,19.25,25.67,28.89,14.97,47.88,1023.95,2042.00,2963.01,2771.16,3134.09,600.19,608.18,39.14,0000 0000 0000 0000 000000
2016-09-20 01:18:38,0.00,1.39,0.00,19.21,25.67,28.86,14.91,47.85,1023.95,2042.02,2963.00,2771.11,3134.08,599.96,608.16,39.19,0000 0000 0000 0000 000000
2016-09-20 01:23:39,0.00,1.39,0.00,19.14,25.65,28.85,14.96,47.71,1023.94,2042.03,2963.00,2771.04,3134.03,600.13,608.47,39.24,0000 0000 0000 0000 000000
2016-09-20 01:28:40,0.00,1.39,0.00,19.19,25.65,28.84,14.92,47.81,1023.94,2042.04,2963.00,2771.08,3134.06,600.10,608.26,39.29,0000 0000 0000 0000 000000
2016-09-20 01:33:42,-0.00,1.39,0.00,19.24,25.65,28.82,14.95,47.77,1023.94,2042.04,2963.00,2771.08,3134.03,600.13,608.13,39.34,0000 0000 0000 0000 000000
2016-09-20 01:38:43,0.01,1.39,0.00,19.22,25.64,28.82,14.95,47.83,1023.94,2042.15,2963.00,2771.10,3134.06,599.85,607.97,39.40,0000 0000 0000 0000 000000
2016-09-20 01:43:44,0.00,1.39,0.00,19.18,25.62,28.84,14.88,47.58,1023.93,2042.14,2962.99,2771.02,3134.00,599.92,608.03,39.45,0000 0000 0000 0000 000000
2016-09-20 01:48:45,-0.00,1.39,0.00,19.20,25.62,28.81,14.94,47.73,1023.88,2042.06,2962.87,2771.00,3134.00,599.91,608.01,39.50,0000 0000 0000 0000 000000
2016-09-20 01:53:46,0.00,1.39,0.00,19.23,25.62,28.80,14.89,47.81,1023.80,2042.07,2962.87,2771.00,3134.00,599.96,608.00,39.55,0000 0000 0000 0000 000000
2016-09-20 01:58:48,0.01,1.39,0.00,19.20,25.62,28.76,14.96,47.77,1023.73,2042.18,2962.76,2771.00,3134.00,600.16,608.26,39.60,0000 0000 0000 0000 000000
2016-09-20 02:03:49,0.02,1.39,0.00,19.24,25.60,28.79,14.94,47.98,1023.76,2042.31,2962.42,2771.00,3134.00,599.93,607.85,39.65,0000 0000 0000 0000 000000
2016-09-20 02:08:50,0.02,1.40,0.00,19.25,25.60,28.82,14.90,47.92,1023.82,2042.41,2962.27,2771.00,3133.99,600.20,608.19,39.70,0000 0000 0000 0000 000000
2016-09-20 02:13:51,0.03,1.40,0.00,19.27,25.60,28.79,14.95,47.78,1023.84,2042.75,2962.17,2771.00,3133.99,599.77,607.64,39.75,0000 0000 0000 0000 000000
2016-09-20 02:18:53,0.01,1.40,0.00,19.25,25.60,28.80,14.99,48.01,1023.73,2042.84,2962.04,2771.00,3133.99,600.38,608.36,39.80,0000 0000 0000 0000 000000
2016-09-20 02:23:54,0.01,1.40,0.00,19.23,25.60,28.79,14.91,47.88,1023.55,2042.90,2962.02,2771.00,3133.99,599.93,607.72,39.85,0000 0000 0000 0000 000000
2016-09-20 02:28:55,-0.00,1.40,0.00,19.23,25.59,28.78,14.98,47.80,1023.61,2042.91,2962.01,2771.00,3133.99,600.20,607.98,39.90,0000 0000 0000 0000 000000
2016-09-20 02:33:57,0.00,1.40,0.00,19.23,25.58,28.78,14.91,47.71,1023.72,2042.89,2962.00,2770.99,3133.98,599.97,607.89,39.95,0000 0000 0000 0000 000000
2016-09-20 02:38:58,0.00,1.40,0.00,19.24,25.57,28.74,15.00,47.82,1023.66,2042.94,2961.99,2770.98,3133.90,599.71,607.56,40.00,0000 0000 0000 0000 000000
2016-09-20 02:43:59,0.00,1.40,0.00,19.24,25.57,28.76,14.91,47.61,1023.55,2042.94,2961.96,2770.97,3133.68,599.67,607.49,40.05,0000 0000 0000 0000 000000
2016-09-20 02:49:00,0.02,1.40,0.00,19.27,25.57,28.78,14.93,47.72,1023.51,2042.95,2961.54,2770.80,3133.29,600.11,607.85,40.10,0000 0000 0000 0000 000000
2016-09-20 02:54:02,0.01,1.40,0.00,19.24,25.57,28.76,14.90,47.66,1023.48,2042.96,2961.27,2770.53,3133.15,599.65,607.43,40.15,0000 0000 0000 0000 000000
2016-09-20 02:59:04,0.01,1.40,0.00,19.21,25.57,28.76,14.82,47.67,1023.46,2042.97,2961.06,2770.32,3133.08,599.73,607.55,40.20,0000 0000 0000 0000 000000
2016-09-20 03:04:05,0.01,1.40,0.00,19.25,25.57,28.76,14.91,47.79,1023.46,2042.98,2961.00,2770.08,3133.02,599.83,607.55,40.25,0000 0000 0000 0000 000000
2016-09-20 03:09:06,-0.00,1.40,0.00,19.22,25.57,28.76,14.95,47.69,1023.45,2042.98,2961.00,2770.04,3133.00,600.20,607.93,40.31,0000 0000 0000 0000 000000
2016-09-20 03:14:07,0.00,1.40,0.00,19.22,25.57,28.78,14.94,47.67,1023.45,2042.97,2960.97,2770.00,3133.00,599.95,607.80,40.36,0000 0000 0000 0000 000000
2016-09-20 03:19:08,0.01,1.40,0.00,19.24,25.57,28.79,14.92,47.64,1023.45,2042.97,2960.56,2770.00,3133.00,600.12,607.89,40.41,0000 0000 0000 0000 000000
2016-09-20 03:24:09,0.00,1.40,0.00,19.22,25.57,28.78,14.97,47.86,1023.45,2042.98,2960.19,2770.00,3132.98,599.99,607.87,40.46,0000 0000 0000 0000 000000
2016-09-20 03:29:11,0.01,1.40,0.00,19.21,25.57,28.74,14.94,47.87,1023.45,2042.98,2960.02,2769.98,3132.89,600.03,607.95,40.51,0000 0000 0000 0000 000000
2016-09-20 03:34:12,-0.00,1.40,0.00,19.21,25.57,28.76,14.95,47.78,1023.44,2042.99,2960.01,2769.98,3132.87,600.40,608.25,40.56,0000 0000 0000 0000 000000
2016-09-20 03:39:13,0.01,1.40,0.00,19.20,25.57,28.76,14.92,47.61,1023.43,2042.99,2960.00,2769.95,3132.48,600.11,608.02,40.61,0000 0000 0000 0000 000000
2016-09-20 03:44:14,0.00,1.40,0.00,19.23,25.57,28.78,14.96,47.77,1023.39,2042.98,2959.98,2769.88,3132.08,599.81,607.62,40.66,0000 0000 0000 0000 000000
2016-09-20 03:49:15,0.00,1.40,0.00,19.25,25.57,28.80,14.96,47.65,1023.30,2042.98,2959.95,2769.74,3132.03,600.60,608.31,40.71,0000 0000 0000 0000 000000
2016-09-20 03:54:17,0.01,1.40,0.00,19.26,25.56,28.79,14.91,47.59,1023.10,2042.99,2959.87,2769.60,3132.01,599.74,607.09,40.76,0000 0000 0000 0000 000000
2016-09-20 03:59:18,0.01,1.40,0.00,19.22,25.57,28.76,14.96,47.75,1023.00,2042.99,2959.60,2769.26,3132.00,600.26,607.79,40.81,0000 0000 0000 0000 000000
2016-09-20 04:04:19,0.00,1.41,0.00,19.21,25.57,28.77,14.97,47.79,1022.98,2042.99,2959.18,2769.09,3132.00,600.13,607.65,40.86,0000 0000 0000 0000 000000
2016-09-20 04:09:21,0.00,1.41,0.00,19.27,25.57,28.77,14.93,47.79,1023.00,2042.99,2959.03,2769.02,3132.00,600.02,607.46,40.91,0000 0000 0000 0000 000000
2016-09-20 04:14:22,0.00,1.41,0.00,19.28,25.57,28.75,14.88,47.73,1022.98,2042.99,2959.00,2769.01,3131.99,600.04,607.45,40.96,0000 0000 0000 0000 000000
2016-09-20 04:19:24,0.00,1.41,0.00,19.20,25.57,28.77,14.91,47.60,1022.97,2042.99,2959.00,2769.03,3131.99,600.23,607.98,41.01,0000 0000 0000 0000 000000
2016-09-20 04:24:25,0.00,1.41,0.00,19.24,25.57,28.76,14.95,47.70,1022.96,2042.99,2959.00,2769.00,3131.98,599.86,607.41,41.06,0000 0000 0000 0000 000000
2016-09-20 04:29:26,0.00,1.41,0.00,19.25,25.57,28.79,14.94,47.74,1022.96,2042.99,2958.97,2769.00,3131.97,599.93,607.43,41.11,0000 0000 0000 0000 000000
2016-09-20 04:34:27,0.01,1.41,0.00,19.25,25.57,28.80,14.84,47.72,1022.93,2042.99,2958.83,2769.00,3131.85,599.80,607.24,41.16,0000 0000 0000 0000 000000
2016-09-20 04:39:28,0.00,1.41,0.00,19.23,25.57,28.78,14.86,47.66,1022.85,2042.99,2958.63,2769.00,3131.57,599.59,606.87,41.21,0000 0000 0000 0000 000000
2016-09-20 04:44:30,0.01,1.41,0.00,19.24,25.57,28.79,14.93,47.71,1022.73,2042.99,2958.38,2768.98,3131.30,600.06,607.29,41.26,0000 0000 0000 0000 000000
2016-09-20 04:49:31,0.00,1.41,0.00,19.23,25.57,28.78,14.97,47.75,1022.57,2042.99,2958.06,2768.97,3131.09,600.02,607.21,41.32,0000 0000 0000 0000 000000
2016-09-20 04:54:33,0.00,1.41,0.00,19.30,25.58,28.80,14.89,47.82,1022.51,2042.99,2958.00,2768.94,3131.04,600.08,607.21,41.37,0000 0000 0000 0000 000000
2016-09-20 04:59:34,0.00,1.41,0.00,19.27,25.59,28.80,14.87,47.71,1022.49,2042.98,2958.00,2768.86,3131.01,599.69,606.88,41.42,0000 0000 0000 0000 000000
2016-09-20 05:04:35,-0.00,1.41,0.00,19.27,25.60,28.79,14.91,47.83,1022.48,2042.99,2958.00,2768.81,3131.01,599.77,606.95,41.47,0000 0000 0000 0000 000000
2016-09-20 05:09:37,0.01,1.41,0.00,19.38,25.60,28.81,14.90,47.73,1022.48,2042.97,2958.00,2768.36,3131.00,599.93,606.84,41.52,0000 0000 0000 0000 000000
2016-09-20 05:14:38,-0.00,1.41,0.00,19.28,25.60,28.75,14.87,47.83,1022.48,2042.99,2957.98,2768.31,3131.00,599.86,606.94,41.57,0000 0000 0000 0000 000000
2016-09-20 05:19:39,0.01,1.41,0.00,19.26,25.60,28.78,14.92,47.87,1022.48,2042.99,2957.98,2768.20,3131.00,599.76,606.89,41.62,0000 0000 0000 0000 000000
2016-09-20 05:24:41,0.00,1.41,0.00,19.28,25.60,28.79,14.90,47.79,1022.48,2042.98,2957.98,2768.15,3131.00,599.81,606.96,41.67,0000 0000 0000 0000 000000
2016-09-20 05:29:42,0.00,1.41,0.00,19.35,25.62,28.80,14.93,47.67,1022.45,2042.98,2957.92,2768.05,3130.98,599.96,606.95,41.72,0000 0000 0000 0000 000000
2016-09-20 05:34:43,0.01,1.41,0.00,19.35,25.62,28.80,14.89,47.76,1022.42,2042.98,2957.46,2768.00,3130.97,600.07,606.97,41.77,0000 0000 0000 0000 000000
2016-09-20 05:39:44,0.01,1.41,0.00,19.41,25.62,28.85,14.88,47.73,1022.32,2042.97,2957.17,2768.00,3130.87,599.63,606.42,41.82,0000 0000 0000 0000 000000
2016-09-20 05:44:46,0.00,1.41,0.00,19.45,25.63,28.82,14.86,47.61,1022.15,2042.95,2957.16,2768.00,3130.77,600.21,606.75,41.87,0000 0000 0000 0000 000000
2016-09-20 05:49:47,0.01,1.41,0.00,19.37,25.65,28.87,14.85,47.85,1022.09,2042.95,2957.03,2768.00,3130.33,599.88,606.57,41.92,0000 0000 0000 0000 000000
2016-09-20 05:54:48,-0.01,1.41,0.00,19.42,25.65,28.87,14.90,47.79,1022.04,2042.84,2957.00,2767.99,3130.06,600.03,606.48,41.97,0000 0000 0000 0000 000000
2016-09-20 05:59:49,0.01,1.41,0.00,19.40,25.65,28.85,14.89,47.60,1022.01,2042.88,2957.00,2767.98,3130.03,600.10,606.67,42.02,0000 0000 0000 0000 000000
2016-09-20 06:04:51,0.00,1.41,0.00,19.42,25.67,28.88,14.88,47.91,1022.00,2042.92,2957.00,2767.98,3130.02,599.77,606.19,42.07,0000 0000 0000 0000 000000
2016-09-20 06:09:52,-0.02,1.41,0.00,19.44,25.67,28.92,14.83,47.79,1021.99,2042.77,2956.99,2767.95,3130.01,599.97,606.44,42.12,0000 0000 0000 0000 000000
2016-09-20 06:14:53,-0.00,1.41,0.00,19.48,25.67,28.89,14.94,47.93,1021.99,2042.59,2956.98,2767.91,3130.00,600.15,606.65,42.17,0000 0000 0000 0000 000000
2016-09-20 06:19:54,-0.00,1.41,0.00,19.49,25.69,28.89,14.86,47.83,1021.99,2042.46,2956.85,2767.53,3130.00,600.25,606.63,42.23,0000 0000 0000 0000 000000
2016-09-20 06:24:56,0.01,1.41,0.00,19.50,25.70,28.88,14.81,47.78,1021.99,2042.41,2956.67,2767.27,3129.99,600.22,606.48,42.28,0000 0000 0000 0000 000000
2016-09-20 06:29:57,-0.01,1.41,0.00,19.49,25.71,28.88,14.85,47.92,1021.96,2042.18,2956.20,2767.10,3129.96,600.12,606.48,42.33,0000 0000 0000 0000 000000
2016-09-20 06:34:58,0.01,1.41,0.00,19.49,25.72,28.88,14.87,47.68,1021.87,2042.09,2956.05,2767.01,3129.73,599.96,606.17,42.38,0000 0000 0000 0000 000000
2016-09-20 06:39:59,0.00,1.41,0.00,19.51,25.72,28.92,14.87,47.67,1021.75,2042.08,2956.02,2767.00,3129.49,599.79,606.03,42.43,0000 0000 0000 0000 000000
2016-09-20 06:45:01,0.00,1.41,0.00,19.51,25.75,28.92,14.92,47.83,1021.62,2042.02,2956.00,2767.00,3129.10,599.99,606.02,42.48,0000 0000 0000 0000 000000
2016-09-20 06:50:02,0.00,1.41,0.00,19.49,25.75,28.96,14.78,47.64,1021.55,2042.02,2956.00,2766.99,3129.03,599.63,605.94,42.53,0000 0000 0000 0000 000000
2016-09-20 06:55:03,0.00,1.41,0.00,19.49,25.76,28.98,14.84,47.77,1021.54,2042.01,2955.98,2766.98,3129.00,599.78,605.88,42.58,0000 0000 0000 0000 000000
2016-09-20 07:00:04,0.00,1.41,0.00,19.49,25.77,28.97,14.92,47.90,1021.53,2042.00,2955.93,2766.96,3129.00,600.14,606.33,42.63,0000 0000 0000 0000 000000
2016-09-20 07:05:05,0.00,1.41,0.00,19.56,25.78,28.96,14.92,47.87,1021.52,2042.01,2955.91,2766.95,3129.00,600.29,606.30,42.68,0000 0000 0000 0000 000000
2016-09-20 07:10:07,0.02,1.41,0.00,19.54,25.80,28.98,14.86,47.71,1021.51,2042.00,2955.36,2766.54,3128.99,600.09,606.17,42.73,0000 0000 0000 0000 000000
2016-09-20 07:15:08,0.02,1.41,0.00,19.60,25.81,28.98,14.80,47.72,1021.51,2042.00,2955.03,2766.09,3128.80,599.90,605.76,42.78,0000 0000 0000 0000 000000
2016-09-20 07:20:09,0.00,1.41,0.00,19.63,25.82,28.99,14.85,47.88,1021.51,2042.00,2955.00,2766.01,3128.25,600.13,605.88,42.83,0000 0000 0000 0000 000000
2016-09-20 07:25:10,0.00,1.41,0.00,19.50,25.82,29.01,14.95,47.83,1021.51,2042.00,2954.99,2766.00,3128.04,600.38,606.57,42.88,0000 0000 0000 0000 000000
2016-09-20 07:30:11,0.00,1.41,0.00,19.51,25.84,29.05,14.92,47.86,1021.52,2041.99,2954.93,2765.99,3128.00,599.75,605.86,42.93,0000 0000 0000 0000 000000
2016-09-20 07:35:13,0.01,1.41,0.00,19.60,25.85,29.06,14.82,47.87,1021.51,2041.99,2954.51,2765.98,3128.00,599.97,605.79,42.98,0000 0000 0000 0000 000000
2016-09-20 07:40:14,0.00,1.41,0.00,19.66,25.86,29.05,14.87,48.02,1021.50,2041.97,2954.13,2765.90,3127.99,600.03,605.68,43.03,0000 0000 0000 0000 000000
2016-09-20 07:45:15,0.02,1.42,0.00,19.63,25.87,29.09,14.87,47.84,1021.50,2041.96,2954.00,2765.33,3127.85,600.26,606.00,43.08,0000 0000 0000 0000 000000
2016-09-20 07:50:16,0.01,1.42,0.00,19.65,25.87,29.08,14.80,47.75,1021.50,2041.94,2953.99,2765.10,3127.34,599.83,605.69,43.13,0000 0000 0000 0000 000000
2016-09-20 07:55:17,0.00,1.42,0.00,19.64,25.89,29.05,14.85,47.90,1021.50,2041.91,2953.98,2765.02,3127.11,599.93,605.62,43.18,0000 0000 0000 0000 000000
2016-09-20 08:00:19,-0.01,1.42,0.00,19.67,25.90,29.06,14.86,47.84,1021.50,2041.82,2953.93,2765.00,3127.04,599.99,605.73,43.24,0000 0000 0000 0000 000000
2016-09-20 08:05:20,0.01,1.42,0.00,19.77,25.91,29.14,14.89,47.82,1021.50,2041.85,2953.65,2765.00,3127.02,599.85,605.39,43.29,0000 0000 0000 0000 000000
2016-09-20 08:10:21,-0.01,1.42,0.00,19.81,25.92,29.24,14.83,47.73,1021.50,2041.68,2953.14,2765.00,3127.00,600.04,605.49,43.34,0000 0000 0000 0000 000000
2016-09-20 08:15:22,-0.04,1.41,0.00,19.78,25.94,29.26,14.83,47.85,1021.50,2041.27,2953.01,2764.98,3127.00,600.01,605.54,43.39,0000 0000 0000 0000 000000
2016-09-20 08:20:24,0.00,1.41,0.00,19.85,25.95,29.21,14.87,47.73,1021.50,2041.15,2953.01,2764.97,3126.98,599.97,605.28,43.44,0000 0000 0000 0000 000000
2016-09-20 08:25:25,-0.00,1.41,0.00,19.99,25.97,29.18,14.86,47.76,1021.50,2041.06,2953.01,2764.97,3126.97,599.91,604.98,43.49,0000 0000 0000 0000 000000
2016-09-20 08:30:26,-0.00,1.41,0.00,20.06,25.98,29.20,14.91,47.84,1021.50,2041.02,2953.01,2764.96,3126.92,600.39,605.31,43.54,0000 0000 0000 0000 000000
2016-09-20 08:35:27,0.03,1.41,0.00,20.20,26.00,29.22,14.80,47.77,1021.50,2041.01,2953.00,2764.58,3126.42,599.91,604.52,43.59,0000 0000 0000 0000 000000
2016-09-20 08:40:29,0.01,1.41,0.00,20.32,26.01,29.25,14.81,47.74,1021.50,2041.00,2953.00,2764.19,3126.08,600.00,604.40,43.64,0000 0000 0000 0000 000000
2016-09-20 08:45:30,0.00,1.42,0.00,20.24,26.03,29.29,14.88,47.78,1021.49,2041.00,2952.98,2764.03,3126.04,600.02,604.61,43.69,0000 0000 0000 0000 000000
2016-09-20 08:50:31,0.00,1.42,0.00,20.21,26.05,29.35,14.82,47.80,1021.50,2041.00,2952.96,2764.01,3126.00,600.21,604.78,43.74,0000 0000 0000 0000 000000
2016-09-20 08:55:32,0.00,1.42,0.00,20.16,26.06,29.49,14.81,47.66,1021.50,2040.98,2952.86,2764.00,3126.00,599.93,604.62,43.79,0000 0000 0000 0000 000000
2016-09-20 09:00:34,0.01,1.42,0.00,20.09,26.07,29.52,14.86,47.73,1021.50,2040.98,2952.20,2764.00,3125.99,599.98,604.81,43.84,0000 0000 0000 0000 000000
2016-09-20 09:05:35,-0.00,1.42,0.00,20.09,26.07,29.50,14.85,47.71,1021.50,2040.95,2952.02,2764.00,3125.97,599.96,604.81,43.89,0000 0000 0000 0000 000000
2016-09-20 09:10:36,0.00,1.42,0.00,20.05,26.08,29.46,14.80,47.63,1021.50,2040.94,2952.00,2763.99,3125.94,599.92,604.83,43.94,0000 0000 0000 0000 000000
2016-09-20 09:15:37,0.00,1.42,0.00,20.04,26.09,29.43,14.93,47.83,1021.50,2040.95,2951.99,2763.98,3125.88,600.20,605.10,43.99,0000 0000 0000 0000 000000
2016-09-20 09:20:38,0.00,1.42,0.00,19.97,26.10,29.43,14.88,47.79,1021.50,2040.96,2951.99,2763.99,3125.72,599.84,604.93,44.04,0000 0000 0000 0000 000000
2016-09-20 09:25:39,-0.00,1.42,0.00,19.88,26.10,29.38,14.83,47.63,1021.50,2040.96,2951.99,2763.97,3125.65,599.95,605.19,44.09,0000 0000 0000 0000 000000
2016-09-20 09:30:40,0.00,1.42,0.00,19.90,26.10,29.41,14.83,47.59,1021.50,2040.96,2951.98,2763.97,3125.58,599.83,605.08,44.15,0000 0000 0000 0000 000000
2016-09-20 09:35:42,0.00,1.42,0.00,19.87,26.10,29.41,14.84,47.64,1021.50,2040.94,2951.99,2763.96,3125.50,599.84,605.14,44.20,0000 0000 0000 0000 000000
2016-09-20 09:40:43,-0.01,1.42,0.00,19.87,26.10,29.43,14.87,47.67,1021.50,2040.87,2951.98,2763.97,3125.34,599.85,605.28,44.25,0000 0000 0000 0000 000000
2016-09-20 09:45:45,0.00,1.42,0.00,19.90,26.10,29.41,14.88,47.56,1021.50,2040.87,2951.98,2763.97,3125.41,599.76,604.93,44.30,0000 0000 0000 0000 000000
2016-09-20 09:50:46,0.00,1.42,0.00,19.90,26.10,29.41,14.93,47.67,1021.50,2040.83,2951.95,2763.89,3125.21,600.50,605.70,44.35,0000 0000 0000 0000 000000
2016-09-20 09:55:47,0.00,1.42,0.00,19.90,26.10,29.40,14.81,47.67,1021.45,2040.79,2951.75,2763.70,3125.07,600.15,605.38,44.40,0000 0000 0000 0000 000000
2016-09-20 10:00:48,0.02,1.42,0.00,19.86,26.10,29.36,14.85,47.65,1021.32,2040.80,2951.50,2763.59,3125.04,600.12,605.37,44.45,0000 0000 0000 0000 000000
2016-09-20 10:05:49,0.01,1.42,0.00,19.77,26.10,29.38,14.92,47.72,1021.15,2040.91,2951.27,2763.49,3125.02,600.07,605.47,44.50,0000 0000 0000 0000 000000
2016-09-20 10:10:51,-0.01,1.42,0.00,19.74,26.10,29.37,14.86,47.78,1021.02,2040.77,2951.11,2763.34,3125.01,600.16,605.47,44.55,0000 0000 0000 0000 000000
2016-09-20 10:15:52,-0.00,1.42,0.00,19.83,26.10,29.37,14.89,47.94,1021.02,2040.88,2951.46,2763.59,3125.04,600.17,605.27,44.60,0000 0000 0000 0000 000000
2016-09-20 10:20:53,-0.00,1.42,0.00,19.87,26.09,29.40,14.92,47.82,1021.02,2040.94,2951.50,2763.77,3125.09,600.25,605.19,44.65,0000 0000 0000 0000 000000
2016-09-20 10:25:55,-0.00,1.42,0.00,19.84,26.08,29.35,14.92,47.77,1021.01,2040.96,2951.66,2763.86,3125.12,600.30,605.45,44.70,0000 0000 0000 0000 000000
2016-09-20 10:30:55,0.01,1.42,0.00,19.84,26.07,29.37,14.90,47.80,1021.02,2040.98,2951.51,2763.90,3125.13,600.02,605.05,44.75,0000 0000 0000 0000 000000
2016-09-20 10:35:57,-0.00,1.42,0.00,19.78,26.07,29.33,14.89,47.83,1021.01,2040.96,2951.39,2763.90,3125.19,600.10,605.40,44.80,0000 0000 0000 0000 000000
2016-09-20 10:40:58,0.01,1.42,0.00,19.72,26.07,29.33,14.91,47.92,1021.01,2040.97,2951.42,2763.88,3125.16,600.32,605.66,44.85,0000 0000 0000 0000 000000
2016-09-20 10:45:59,0.00,1.42,0.00,19.77,26.07,29.32,14.84,47.76,1021.01,2040.98,2951.18,2763.84,3125.07,599.73,604.95,44.90,0000 0000 0000 0000 000000
2016-09-20 10:51:00,0.00,1.42,0.00,19.77,26.07,29.32,14.92,47.86,1021.01,2040.98,2951.05,2763.73,3125.05,600.00,605.24,44.95,0000 0000 0000 0000 000000
2016-09-20 10:56:01,-0.00,1.42,0.00,19.78,26.06,29.30,14.86,47.90,1021.01,2040.98,2951.08,2763.87,3125.11,600.14,605.29,45.01,0000 0000 0000 0000 000000
2016-09-20 11:01:03,0.00,1.42,0.00,19.72,26.05,29.27,14.87,47.82,1021.00,2040.99,2951.05,2763.85,3125.08,599.85,605.20,45.06,0000 0000 0000 0000 000000
2016-09-20 11:06:04,-0.00,1.42,0.00,19.77,26.05,29.29,14.80,47.78,1020.93,2040.98,2951.06,2763.93,3125.15,599.91,605.20,45.11,0000 0000 0000 0000 000000
2016-09-20 11:11:05,-0.01,1.42,0.00,19.76,26.05,29.30,14.81,47.82,1020.75,2040.99,2951.13,2763.94,3125.32,600.20,605.35,45.16,0000 0000 0000 0000 000000
2016-09-20 11:16:06,0.00,1.42,0.00,19.70,26.05,29.29,14.80,47.88,1020.57,2040.99,2951.05,2763.95,3125.25,599.82,604.85,45.21,0000 0000 0000 0000 000000
2016-09-20 11:21:08,0.00,1.42,0.00,19.70,26.03,29.28,14.75,47.69,1020.53,2040.99,2951.07,2763.97,3125.31,599.95,605.07,45.26,0000 0000 0000 0000 000000
2016-09-20 11:26:09,0.00,1.42,0.00,19.72,26.02,29.27,14.85,47.73,1020.52,2040.99,2951.04,2763.95,3125.14,600.17,604.99,45.31,0000 0000 0000 0000 000000
2016-09-20 11:31:10,-0.00,1.42,0.00,19.72,26.02,29.28,14.95,47.88,1020.52,2040.99,2951.06,2763.95,3125.20,600.47,605.57,45.36,0000 0000 0000 0000 000000
2016-09-20 11:36:11,0.00,1.42,0.00,19.72,26.02,29.29,14.88,47.94,1020.52,2040.99,2951.14,2763.97,3125.22,599.73,604.81,45.41,0000 0000 0000 0000 000000
2016-09-20 11:41:12,-0.01,1.42,0.00,19.70,26.01,29.29,14.81,47.88,1020.52,2040.99,2951.29,2763.96,3125.41,599.60,604.67,45.46,0000 0000 0000 0000 000000
2016-09-20 11:46:13,0.00,1.42,0.00,19.64,26.00,29.28,14.85,47.98,1020.49,2040.99,2951.08,2763.98,3125.34,599.65,604.85,45.51,0000 0000 0000 0000 000000
2016-09-20 11:51:14,-0.01,1.42,0.00,19.67,26.00,29.23,14.87,47.75,1020.29,2040.99,2951.19,2763.97,3125.62,599.96,605.00,45.56,0000 0000 0000 0000 000000
2016-09-20 11:56:15,-0.01,1.42,0.00,19.60,26.00,29.26,14.79,47.67,1020.21,2040.99,2951.60,2763.99,3125.85,599.71,604.65,45.61,0000 0000 0000 0000 000000
2016-09-20 12:01:16,-0.00,1.42,0.00,19.57,25.97,29.22,14.81,47.83,1020.11,2040.99,2951.92,2763.99,3125.94,600.10,605.34,45.66,0000 0000 0000 0000 000000
2016-09-20 12:06:18,0.01,1.42,0.00,19.58,25.97,29.22,14.77,47.92,1020.08,2040.99,2951.65,2763.99,3125.87,599.19,604.26,45.71,0000 0000 0000 0000 000000
2016-09-20 12:11:19,-0.01,1.42,0.00,19.62,25.97,29.20,14.80,47.77,1020.07,2040.99,2951.82,2763.99,3125.95,599.72,604.67,45.76,0000 0000 0000 0000 000000
2016-09-20 12:16:20,-0.00,1.42,0.00,19.59,25.95,29.20,14.84,47.87,1020.05,2040.99,2951.74,2763.99,3125.95,599.65,604.75,45.81,0000 0000 0000 0000 000000
2016-09-20 12:21:22,0.00,1.42,0.00,19.57,25.95,29.18,14.85,47.88,1020.04,2040.99,2951.94,2763.99,3125.98,599.47,604.52,45.86,0000 0000 0000 0000 000000
2016-09-20 12:26:23,0.00,1.42,0.00,19.57,25.94,29.20,14.79,47.88,1020.04,2040.99,2951.93,2763.99,3125.98,599.96,605.03,45.91,0000 0000 0000 0000 000000
2016-09-20 12:31:24,0.00,1.42,0.00,19.62,25.92,29.21,14.79,47.60,1020.03,2040.99,2951.93,2763.99,3125.98,599.72,604.78,45.96,0000 0000 0000 0000 000000
2016-09-20 12:36:26,0.00,1.42,0.00,19.60,25.92,29.17,14.92,47.74,1019.87,2040.99,2951.82,2763.99,3125.97,599.84,604.79,46.02,0000 0000 0000 0000 000000
2016-09-20 12:41:27,-0.00,1.42,0.00,19.56,25.91,29.21,14.84,47.76,1019.64,2041.03,2951.91,2764.01,3125.99,599.52,604.33,46.07,0000 0000 0000 0000 000000
2016-09-20 12:46:28,-0.00,1.42,0.00,19.57,25.90,29.19,14.90,47.79,1019.61,2041.03,2951.92,2764.01,3125.99,600.27,605.11,46.12,0000 0000 0000 0000 000000
2016-09-20 12:51:29,0.01,1.42,0.00,19.53,25.90,29.15,14.85,47.84,1019.55,2041.04,2951.82,2764.02,3125.99,600.09,604.96,46.17,0000 0000 0000 0000 000000
2016-09-20 12:56:30,0.01,1.42,0.00,19.50,25.89,29.13,14.84,47.89,1019.55,2041.02,2951.26,2764.00,3125.98,600.17,605.13,46.22,0000 0000 0000 0000 000000